Stündliche Wetter Çelikhan

Heute, 22 Januar, Freitag

Zeit Temperatur Niederschläge Wind Luftdruck Luftfeuchtigkeit
00:00 -8°C° 0 mm 1 m/S 648 mmHg 67%
01:00 -8°C° 0 mm 1 m/S 648 mmHg 68%
02:00 -7°C° 0 mm 1 m/S 648 mmHg 68%
03:00 -7°C° 0 mm 1 m/S 648 mmHg 69%
04:00 -7°C° 0 mm 1 m/S 648 mmHg 69%
05:00 -7°C° 0 mm 1 m/S 648 mmHg 70%
06:00 -8°C° 0 mm 1 m/S 647 mmHg 70%
07:00 -7°C° 0 mm 1 m/S 648 mmHg 70%
08:00 -7°C° 0 mm 1 m/S 648 mmHg 69%
09:00 -6°C° 0 mm 1 m/S 648 mmHg 68%
10:00 -4°C° 0 mm 1 m/S 648 mmHg 67%
11:00 -2°C° 0 mm 1 m/S 649 mmHg 66%
12:00 -1°C° 0 mm 1 m/S 649 mmHg 65%
13:00 -1°C° 0 mm 1 m/S 648 mmHg 67%
14:00 -1°C° 0 mm 1 m/S 648 mmHg 69%
15:00 0°C° 0 mm 1 m/S 647 mmHg 71%
16:00 -2°C° 0 mm 1 m/S 647 mmHg 74%
17:00 -3°C° 0 mm 1 m/S 646 mmHg 77%
18:00 -6°C° 0 mm 1 m/S 646 mmHg 80%
19:00 -6°C° 0 mm 1 m/S 646 mmHg 78%
20:00 -6°C° 0 mm 1 m/S 646 mmHg 76%
21:00 -6°C° 0 mm 1 m/S 646 mmHg 73%
22:00 -6°C° 0 mm 1 m/S 646 mmHg 71%
23:00 -6°C° 0 mm 1 m/S 646 mmHg 69%

Morgen, 23 Januar, Samstag

Zeit Temperatur Niederschläge Wind Luftdruck Luftfeuchtigkeit
00:00 -6°C° 0 mm 1 m/S 646 mmHg 68%
01:00 -6°C° 0 mm 1 m/S 646 mmHg 67%
02:00 -6°C° 0 mm 1 m/S 645 mmHg 66%
03:00 -6°C° 0 mm 1 m/S 645 mmHg 65%
04:00 -6°C° 0 mm 1 m/S 645 mmHg 65%
05:00 -6°C° 0 mm 1 m/S 645 mmHg 65%
06:00 -7°C° 0 mm 1 m/S 645 mmHg 65%
07:00 -6°C° 0 mm 1 m/S 645 mmHg 64%
08:00 -4°C° 0 mm 1 m/S 646 mmHg 63%
09:00 -3°C° 0 mm 1 m/S 646 mmHg 62%
10:00 -2°C° 0 mm 1 m/S 646 mmHg 63%
11:00 -1°C° 0 mm 1 m/S 646 mmHg 64%
12:00 0°C° 0 mm 1 m/S 646 mmHg 64%
13:00 +1°C° 0 mm 1 m/S 646 mmHg 66%
14:00 0°C° 0 mm 0 m/S 646 mmHg 68%
15:00 0°C° 0 mm 0 m/S 645 mmHg 70%
16:00 -1°C° 0 mm 0 m/S 645 mmHg 70%
17:00 -3°C° 0 mm 0 m/S 644 mmHg 71%
18:00 -5°C° 0 mm 0 m/S 644 mmHg 71%
19:00 -5°C° 0 mm 0 m/S 644 mmHg 67%
20:00 -5°C° 0 mm 0 m/S 644 mmHg 64%
21:00 -5°C° 0 mm 0 m/S 644 mmHg 60%
22:00 -5°C° 0 mm 0 m/S 644 mmHg 58%
23:00 -5°C° 0 mm 0 m/S 644 mmHg 57%

übermorgen, 24 Januar, Sonntag

Zeit Temperatur Niederschläge Wind Luftdruck Luftfeuchtigkeit
00:00 -5°C° 0 mm 0 m/S 645 mmHg 56%
01:00 -5°C° 0 mm 0 m/S 644 mmHg 55%
02:00 -5°C° 0 mm 0 m/S 644 mmHg 55%
03:00 -5°C° 0 mm 0 m/S 644 mmHg 54%
04:00 -5°C° 0 mm 0 m/S 644 mmHg 54%
05:00 -5°C° 0 mm 0 m/S 644 mmHg 53%
06:00 -5°C° 0 mm 0 m/S 644 mmHg 53%
07:00 -5°C° 0 mm 0 m/S 644 mmHg 53%
08:00 -4°C° 0 mm 0 m/S 645 mmHg 52%
09:00 -3°C° 0 mm 0 m/S 645 mmHg 52%
10:00 -1°C° 0 mm 1 m/S 646 mmHg 53%
11:00 0°C° 0 mm 1 m/S 646 mmHg 54%
12:00 +1°C° 0 mm 1 m/S 646 mmHg 56%
13:00 +2°C° 0 mm 1 m/S 646 mmHg 58%
14:00 +2°C° 0 mm 1 m/S 645 mmHg 60%
15:00 +2°C° 0 mm 1 m/S 645 mmHg 62%
16:00 0°C° 0 mm 1 m/S 644 mmHg 63%
17:00 -1°C° 0 mm 1 m/S 644 mmHg 63%
18:00 -3°C° 0 mm 0 m/S 644 mmHg 64%
19:00 -3°C° 0 mm 1 m/S 644 mmHg 61%
20:00 -3°C° 0 mm 1 m/S 644 mmHg 58%
21:00 -3°C° 0 mm 1 m/S 644 mmHg 55%
22:00 -3°C° 0 mm 1 m/S 644 mmHg 53%
23:00 -3°C° 0 mm 1 m/S 644 mmHg 52%

25 Januar, Montag

Zeit Temperatur Niederschläge Wind Luftdruck Luftfeuchtigkeit
00:00 -3°C° 0 mm 1 m/S 644 mmHg 51%
01:00 -3°C° 0 mm 1 m/S 644 mmHg 51%
02:00 -3°C° 0 mm 1 m/S 644 mmHg 51%
03:00 -5°C° 0 mm 0 m/S 644 mmHg 51%
04:00 -4°C° 0 mm 1 m/S 644 mmHg 51%
05:00 -4°C° 0 mm 1 m/S 644 mmHg 51%
06:00 -4°C° 0 mm 1 m/S 644 mmHg 51%
07:00 -3°C° 0 mm 1 m/S 644 mmHg 51%
08:00 -2°C° 0 mm 1 m/S 645 mmHg 51%
09:00 -1°C° 0 mm 1 m/S 645 mmHg 51%
10:00 0°C° 0 mm 1 m/S 645 mmHg 53%
11:00 +1°C° 0 mm 1 m/S 645 mmHg 55%
12:00 +2°C° 0 mm 1 m/S 645 mmHg 56%
13:00 +2°C° 0 mm 1 m/S 645 mmHg 58%
14:00 +3°C° 0 mm 1 m/S 645 mmHg 60%
15:00 +3°C° 0 mm 1 m/S 644 mmHg 61%
16:00 +1°C° 0 mm 1 m/S 644 mmHg 62%
17:00 0°C° 0 mm 1 m/S 643 mmHg 62%
18:00 -2°C° 0 mm 1 m/S 643 mmHg 62%
19:00 -2°C° 0 mm 1 m/S 643 mmHg 60%
20:00 -2°C° 0 mm 1 m/S 644 mmHg 59%
21:00 -2°C° 0 mm 1 m/S 644 mmHg 57%
22:00 -2°C° 0 mm 1 m/S 644 mmHg 57%
23:00 -2°C° 0 mm 1 m/S 644 mmHg 58%

26 Januar, Dienstag

Zeit Temperatur Niederschläge Wind Luftdruck Luftfeuchtigkeit
00:00 -2°C° 0 mm 1 m/S 644 mmHg 58%
01:00 -2°C° 0 mm 1 m/S 644 mmHg 59%
02:00 -2°C° 0 mm 1 m/S 644 mmHg 60%
03:00 -2°C° 0 mm 1 m/S 644 mmHg 61%
04:00 -2°C° 0 mm 1 m/S 644 mmHg 61%
05:00 -2°C° 0 mm 1 m/S 644 mmHg 61%
06:00 -2°C° 0 mm 1 m/S 644 mmHg 61%
07:00 -1°C° 0 mm 1 m/S 644 mmHg 61%
08:00 -1°C° 0 mm 1 m/S 645 mmHg 61%
09:00 0°C° 0 mm 1 m/S 645 mmHg 61%
10:00 +1°C° 0 mm 1 m/S 645 mmHg 63%
11:00 +2°C° 0 mm 1 m/S 645 mmHg 64%
12:00 +3°C° 0 mm 1 m/S 645 mmHg 66%
13:00 +3°C° 0 mm 1 m/S 645 mmHg 66%
14:00 +3°C° 0 mm 1 m/S 645 mmHg 67%
15:00 +3°C° 0 mm 1 m/S 644 mmHg 67%
16:00 +2°C° 0 mm 1 m/S 644 mmHg 68%
17:00 +1°C° 0 mm 1 m/S 643 mmHg 69%
18:00 -1°C° 0 mm 1 m/S 643 mmHg 69%
19:00 0°C° 0 mm 1 m/S 643 mmHg 68%
20:00 0°C° 0 mm 1 m/S 643 mmHg 67%
21:00 0°C° 0 mm 1 m/S 643 mmHg 65%
22:00 0°C° 0 mm 1 m/S 643 mmHg 66%
23:00 0°C° 0 mm 1 m/S 643 mmHg 66%

27 Januar, Mittwoch

Zeit Temperatur Niederschläge Wind Luftdruck Luftfeuchtigkeit
00:00 0°C° 0 mm 1 m/S 643 mmHg 66%
01:00 0°C° 0 mm 1 m/S 643 mmHg 66%
02:00 0°C° 0 mm 1 m/S 642 mmHg 66%
03:00 +1°C° 0 mm 1 m/S 642 mmHg 65%
04:00 +1°C° 0 mm 1 m/S 642 mmHg 66%
05:00 +1°C° 0 mm 1 m/S 641 mmHg 66%
06:00 +1°C° 0 mm 1 m/S 641 mmHg 66%
07:00 +1°C° 0 mm 1 m/S 641 mmHg 65%
08:00 +1°C° 0 mm 1 m/S 641 mmHg 65%
09:00 +1°C° 0 mm 1 m/S 641 mmHg 64%
10:00 +1°C° 0 mm 2 m/S 640 mmHg 64%
11:00 +2°C° 0 mm 2 m/S 640 mmHg 64%
12:00 +2°C° 0 mm 3 m/S 639 mmHg 64%
13:00 +2°C° 0 mm 3 m/S 638 mmHg 65%
14:00 +2°C° 0 mm 3 m/S 637 mmHg 66%
15:00 +2°C° 0 mm 3 m/S 637 mmHg 67%
16:00 +1°C° 0.2 mm 3 m/S 636 mmHg 72%
17:00 -1°C° 0.2 mm 4 m/S 635 mmHg 78%
18:00 -2°C° 0.2 mm 4 m/S 635 mmHg 84%
19:00 -1°C° 0.3 mm 4 m/S 635 mmHg 82%
20:00 0°C° 0.3 mm 3 m/S 634 mmHg 81%
21:00 0°C° 0.3 mm 3 m/S 634 mmHg 80%
22:00 0°C° 0 mm 3 m/S 634 mmHg 80%
23:00 0°C° 0 mm 3 m/S 633 mmHg 80%
Mehr zeigen

Wir brauchen deine Erlaubnis

Meteoprog und unser Service Anbieter werden persönliche Daten aufbewahren, so wie Cookies, Geräte Bezeichnung oder ähnliche Technologien von deinem Gerät und Prozess, so wie Persönliche Daten Inhalte und Werbungen, genauso wie social Media und den Verkehr zu analysieren.

  • Aufbewahrung und/oder Zugang zu deiner Geräte Informationen.

    Cookies, Geräte Bezeichnung oder andere Informationen, können aufbewahrt oder Zugang zu deinem Gerät erhalten, für den Grund, der oben angegeben wird.

  • Personalisierte Werbung und Inhalte, Messungen, Einblick in das Publikum und Produkt Entwicklung.

    Werbungen und Inhalte können personalisiert werden, basierend auf ein Profil. Mehr Daten können besser personalisierte Werbungen und Inhalte hinzufügen. Werbung und Inhalte können gezeigt und gemessen werden. Einblicke über das Publikum, welche die Werbung gesehen haben und den Inhalt, können abgeleitet werden. So wie Daten können genutzt werden, um es zu verbessern oder die Benutzer Erfahrung zu verbessern das System und die Software.

Wenn du “Ich stimme zu” klickst, erlaubst du uns, die Cookies zu benutzen die Geräte Bezeichnung, den Web oder ähnliche Technologien zu benutzen. Deine Settings, können in deinem Gerät bei deinem Browser geändert werden.

Für den bestimmten Zweck, berechtigten Interessen beruhen darauf, mehr als auf den Inhalt. Du kannst mehr darüber in unseren Privaten und Cookie Politik lesen.